Wind_Speed
8 2 1 2 3 6 7 4 3 2 1 1 1 2 2 3 6 7 7 8 10 11 13 15 16 18 19 20 22 22 23 24 26 27 29 30 31 33 34 34 35 37 38 40 42 43 44 45 46
7 2 1 1 3 3 8 6 5 5 5 3 3 4 5 5 8 10 10 11 12 14 16 17 19 20 21 22 23 24 25 26 28 30 31 32 34 34 35 37 38 39 40 42 44 45 47 48 49
7 5 3 2 5 3 7 9 6 7 9 9 7 8 7 7 9 12 13 14 15 17 18 19 21 22 24 24 26 27 28 29 31 32 34 35 35 36 37 38 40 41 42 44 45 46 49 50 52
9 6 4 3 4 5 8 10 10 9 10 14 14 12 13 13 13 15 17 18 19 20 20 22 24 25 26 27 28 29 30 32 33 35 35 36 36 38 40 41 42 43 45 46 48 50 51 54 57
13 9 5 2 6 6 8 9 11 11 12 16 17 16 17 16 17 19 20 21 22 24 25 26 27 28 29 30 31 31 32 34 35 36 36 37 38 41 42 43 44 45 47 49 52 54 56 58 60
16 13 8 4 7 8 10 11 14 15 15 17 20 21 20 21 21 22 22 23 25 26 28 29 30 30 31 31 32 34 34 36 36 37 38 40 41 43 44 45 46 48 51 53 55 58 61 61 62
20 15 13 12 8 9 13 16 19 21 20 20 22 24 24 25 25 25 25 25 26 29 30 32 31 31 33 33 35 36 36 36 36 38 40 42 44 44 45 47 51 55 56 58 60 61 63 62 62
22 20 16 17 9 11 15 18 21 24 26 27 27 28 29 30 30 28 27 28 28 30 31 32 32 33 35 37 38 37 37 37 39 40 41 43 44 46 50 52 56 59 60 63 64 64 62 60 60
24 21 16 17 15 16 16 18 20 24 26 28 29 30 31 29 30 30 30 30 31 31 32 33 34 36 38 38 37 37 37 39 40 39 41 44 47 52 55 58 61 63 66 66 64 63 60 61 60
26 22 19 17 18 18 17 18 19 23 26 28 29 29 27 26 27 31 33 34 33 33 34 36 37 39 38 37 38 39 41 41 41 43 47 50 53 55 58 62 63 66 64 62 64 61 59 60 59
28 23 23 20 17 18 16 16 18 22 27 27 26 27 27 25 28 33 36 39 37 37 39 40 40 40 39 38 39 42 43 43 44 47 52 54 58 60 63 64 65 64 61 60 59 59 59 58 55
26 23 25 22 20 18 16 17 18 22 25 29 28 27 29 28 29 34 37 39 40 40 42 43 45 45 42 42 44 47 47 48 49 53 56 58 61 63 63 64 61 57 59 61 59 57 54 53 53
27 25 26 26 25 22 17 19 19 24 25 28 29 30 30 30 32 35 37 39 41 42 45 45 47 47 46 47 49 50 51 53 51 54 59 58 61 64 65 62 60 61 59 59 58 57 56 55 54
33 31 30 31 26 23 23 25 24 28 27 29 30 32 33 33 35 36 37 40 42 43 45 46 48 48 49 50 52 53 54 55 56 59 57 61 65 66 63 66 63 58 58 57 59 59 56 53 54
34 32 32 34 29 31 29 27 29 29 30 31 32 33 33 34 36 37 38 39 41 43 45 46 47 49 51 52 54 54 57 59 55 54 60 63 64 61 65 61 59 59 59 60 60 59 57 57 58
35 35 31 33 34 41 36 26 27 28 34 31 33 34 35 36 37 38 39 40 42 43 44 46 48 51 54 54 56 61 61 58 54 60 65 64 61 63 61 62 60 59 60 64 63 60 59 59 61
32 31 27 33 33 35 22 28 32 38 32 34 36 37 37 38 40 40 42 43 42 41 43 46 49 51 53 57 57 58 57 58 62 63 63 61 61 64 62 62 61 62 65 66 63 61 60 60 60
24 29 30 28 36 29 30 30 34 42 38 39 39 40 40 40 41 43 42 39 37 38 40 44 48 52 52 50 45 59 60 58 62 59 58 63 62 61 60 60 61 66 65 66 63 62 60 59 60
34 34 32 29 34 35 35 35 39 39 40 41 42 42 42 42 39 35 34 35 38 42 45 48 48 46 46 44 52 54 55 60 60 59 64 60 62 61 63 62 65 66 69 65 61 60 58 59 59
35 35 34 35 36 34 36 34 40 41 41 42 42 42 40 34 33 34 34 36 38 40 43 45 45 44 47 54 53 52 58 59 57 63 62 65 64 63 62 61 65 69 66 63 59 57 57 58 59
34 35 37 37 39 35 35 27 34 37 39 40 39 33 32 32 33 34 35 38 42 42 42 41 45 49 51 56 50 53 53 59 61 59 60 62 64 62 60 63 67 66 63 58 56 56 57 58 61
34 37 36 36 34 23 32 22 34 36 37 36 32 31 32 34 35 38 42 45 44 42 43 45 50 53 52 48 48 50 61 66 68 64 60 63 67 61 63 66 69 61 56 55 55 56 56 58 60
35 35 34 34 33 32 27 27 32 33 35 31 31 32 35 35 39 43 44 43 43 44 48 50 47 45 45 43 50 61 66 65 57 58 60 63 62 63 68 69 61 54 52 53 55 56 57 59 57
36 35 35 35 35 29 24 28 30 28 28 31 32 35 36 40 42 41 41 42 43 45 45 45 46 48 45 49 54 56 57 55 60 62 60 60 63 65 66 61 54 50 51 53 54 55 57 57 49
26 27 21 18 16 15 25 23 27 27 30 31 34 37 40 41 39 38 39 40 43 47 48 49 49 49 52 49 51 47 51 56 58 58 59 62 63 64 61 53 49 50 51 52 54 56 57 52 43
19 20 15 15 13 13 21 20 27 29 30 32 36 39 39 36 35 35 38 42 46 48 50 49 48 46 45 46 47 51 55 53 53 55 60 60 60 58 51 47 47 49 50 52 54 56 54 47 42
14 14 15 16 17 17 19 24 29 30 31 35 37 37 32 32 33 37 40 44 47 47 47 45 44 44 44 48 49 50 49 50 56 57 60 59 57 50 47 46 46 49 51 53 54 53 51 46 43
11 12 12 14 16 12 20 28 30 33 36 36 34 30 29 32 35 39 43 46 46 45 43 42 42 43 47 49 50 51 51 54 57 57 57 55 52 48 46 45 46 49 51 53 53 52 50 46 43
12 14 16 18 19 20 20 30 32 34 31 29 27 28 30 33 37 41 43 45 44 44 45 45 45 46 48 49 49 51 54 56 56 55 54 52 48 46 44 44 45 48 51 53 50 50 49 46 44
15 17 18 20 25 23 26 35 29 26 24 24 26 28 32 35 38 41 44 45 45 45 45 45 45 46 47 50 51 53 54 55 54 53 51 49 46 45 43 43 45 48 51 51 47 48 49 47 45
Wind_Direction
153 175 209 68 74 45 360 348 3 352 52 106 190 235 291 339 333 329 325 331 331 331 331 329 326 322 318 315 312 309 307 304 301 302 301 300 300 300 299 299 299 298 297 296 295 295 294 293 291
169 159 191 110 45 37 312 325 331 328 311 321 286 287 285 310 319 317 320 324 324 324 324 323 319 316 314 313 310 307 305 302 302 302 301 300 300 300 300 300 299 296 295 294 294 294 293 292 290
185 154 171 296 305 310 309 298 318 332 323 313 307 302 299 306 319 319 319 321 320 318 319 317 315 313 313 311 310 307 306 304 302 301 300 300 299 300 298 296 294 295 295 294 293 292 291 289 289
189 173 142 347 267 302 334 307 316 331 331 321 315 313 312 318 324 322 319 316 315 314 314 315 314 314 313 312 310 306 304 302 301 301 300 299 299 296 294 294 294 294 293 293 292 292 290 287 286
200 186 159 338 284 312 324 327 314 311 319 324 320 320 315 318 319 317 314 314 315 316 317 317 316 316 315 311 307 305 303 302 301 300 298 296 295 293 293 294 294 294 294 293 292 291 289 287 287
208 203 190 206 273 300 310 311 313 312 317 321 323 322 318 316 315 313 312 314 317 319 318 319 318 315 311 307 305 303 302 300 300 298 296 295 295 293 293 294 297 300 300 299 298 295 294 293 293
212 216 218 219 240 280 288 299 307 307 309 312 313 320 322 319 317 316 318 320 320 320 319 319 315 310 307 305 304 303 302 300 297 297 298 298 295 294 296 299 302 303 302 302 301 300 297 295 294
219 228 232 233 254 263 277 291 302 305 308 313 313 315 320 321 320 317 319 321 319 319 317 314 311 307 306 306 305 303 300 299 301 302 300 296 295 298 299 302 304 304 304 305 305 302 299 298 297
224 228 237 243 257 274 283 295 307 313 309 314 320 323 323 324 320 315 316 319 318 317 313 310 308 307 309 308 305 301 300 303 306 304 298 296 299 301 301 304 304 305 306 307 304 301 298 296 296
229 232 241 251 256 269 286 297 309 323 320 321 322 322 324 321 317 314 314 314 316 314 310 309 309 310 309 306 302 301 303 306 305 303 300 302 305 304 303 304 306 308 309 306 301 299 298 299 299
235 238 245 254 263 266 283 299 309 315 320 325 325 319 318 318 315 313 312 312 314 315 312 310 309 309 308 303 302 303 306 306 305 304 304 306 307 305 306 308 310 310 306 307 306 303 300 300 300
239 243 248 254 266 270 271 285 303 313 314 322 320 313 312 313 314 311 310 312 314 315 312 312 310 309 306 304 304 304 307 308 306 303 305 305 306 307 310 311 311 310 309 307 309 307 304 302 299
241 242 247 250 246 260 271 275 292 299 308 315 313 308 306 310 312 310 310 312 313 312 310 310 307 304 302 302 303 306 308 308 301 302 300 305 308 310 312 312 310 310 311 309 308 307 304 302 301
240 247 247 252 257 264 263 270 284 289 298 307 305 305 307 308 309 308 306 307 307 306 307 305 301 300 298 300 303 306 308 305 301 300 306 311 312 313 313 315 312 307 308 311 312 308 305 305 304
242 249 259 273 259 262 258 272 283 286 294 298 299 302 303 303 306 304 301 303 302 303 303 300 298 297 297 300 304 306 307 303 295 308 312 312 312 312 316 314 311 311 315 314 313 311 308 307 307
246 250 258 270 266 263 262 261 284 287 291 299 298 299 299 304 301 297 298 299 300 300 298 295 296 297 298 302 304 308 304 300 313 311 309 310 311 314 313 314 316 317 317 316 314 312 312 310 309
257 258 256 256 285 286 287 296 307 302 299 298 297 298 298 298 299 298 298 300 301 298 293 294 297 298 302 307 308 299 308 315 307 307 309 312 313 315 310 312 316 317 317 315 314 313 312 312 311
249 259 261 266 283 291 294 300 301 294 301 298 297 298 300 303 300 301 302 302 301 298 298 299 301 303 303 303 298 307 305 303 304 305 316 314 315 314 314 315 317 317 317 316 314 312 313 313 312
249 258 275 274 277 284 290 294 290 293 294 295 298 301 303 301 304 305 304 302 298 296 298 300 302 302 301 303 310 306 301 303 302 312 314 315 315 315 315 315 316 317 316 314 313 314 314 315 313
252 259 265 269 273 279 285 288 290 290 292 296 299 301 302 305 306 306 306 305 307 307 305 304 304 303 307 315 311 303 300 300 311 318 315 314 316 317 316 316 316 316 315 314 314 315 317 315 316
255 259 265 269 277 282 283 297 292 296 297 299 304 307 309 308 307 308 309 310 310 308 306 308 308 308 309 313 306 300 299 310 314 313 315 320 321 317 316 315 315 315 314 314 316 318 318 318 318
258 261 266 272 277 279 286 286 289 294 298 303 305 306 308 311 312 312 313 312 311 310 311 308 310 313 312 309 300 302 303 311 314 308 313 317 318 316 314 315 316 314 316 317 319 319 320 320 321
257 264 268 272 277 280 290 290 277 287 301 302 304 308 313 317 315 314 313 315 315 315 316 316 316 309 309 298 295 307 309 310 314 315 313 316 318 318 316 316 315 317 318 319 321 321 322 323 324
263 267 271 275 278 283 273 284 278 287 294 299 307 314 316 315 315 314 314 316 319 321 321 316 309 311 307 298 298 304 312 309 315 320 318 319 319 318 318 316 318 320 320 322 323 323 325 327 324
269 272 273 275 283 279 276 289 283 291 300 306 311 315 314 315 315 316 320 325 324 321 319 318 315 309 313 313 311 312 316 317 319 321 319 319 320 319 318 319 322 321 323 324 325 327 328 329 324
271 269 262 274 272 272 286 286 292 297 302 309 313 313 316 316 319 324 325 326 324 322 319 318 318 319 317 319 320 316 316 319 320 321 321 323 323 320 321 323 322 322 324 326 329 329 331 329 325
269 267 270 277 278 282 276 293 294 302 307 309 314 315 316 322 325 325 328 327 325 322 321 325 324 323 324 322 319 320 321 321 321 323 325 325 322 323 323 322 322 324 327 329 331 332 333 329 326
265 272 275 276 287 290 288 292 297 306 311 312 314 319 325 326 326 327 328 328 328 328 329 328 329 328 323 320 320 321 321 323 324 326 326 323 323 325 324 323 324 327 330 332 332 334 333 330 327
278 274 274 279 283 287 288 285 306 305 309 315 323 326 325 327 328 329 331 333 333 331 330 329 327 323 322 324 325 326 326 325 325 325 325 326 327 326 325 325 326 329 332 334 334 334 334 331 329
269 275 285 288 290 293 294 294 303 312 318 323 324 325 328 328 329 332 336 338 335 331 330 326 325 325 325 325 327 328 328 327 326 326 327 328 328 327 327 328 328 330 334 336 334 334 334 333 334
Height
5913 5914 5914 5914 5917 5914 5914 5912 5909 5908 5907 5905 5903 5902 5901 5899 5898 5898 5895 5892 5890 5887 5885 5883 5881 5878 5876 5873 5871 5868 5865 5862 5859 5856 5852 5849 5846 5843 5840 5836 5833 5829 5826 5822 5819 5815 5812 5809 5806
5913 5914 5915 5915 5916 5920 5916 5911 5909 5907 5906 5904 5903 5901 5900 5897 5896 5894 5892 5890 5887 5884 5882 5880 5877 5875 5872 5869 5866 5863 5860 5856 5853 5849 5846 5843 5840 5836 5833 5829 5825 5821 5817 5814 5810 5807 5803 5799 5796
5912 5913 5915 5914 5915 5916 5913 5910 5909 5908 5906 5904 5903 5901 5898 5896 5894 5892 5889 5887 5884 5882 5879 5876 5874 5871 5868 5865 5861 5858 5854 5851 5847 5844 5840 5837 5833 5830 5826 5822 5818 5814 5810 5807 5802 5798 5793 5789 5785
5912 5914 5915 5915 5915 5914 5912 5909 5908 5907 5905 5902 5900 5899 5896 5893 5891 5889 5887 5884 5881 5879 5876 5873 5870 5867 5864 5860 5856 5852 5849 5845 5841 5837 5834 5831 5827 5823 5818 5814 5810 5806 5802 5798 5793 5788 5783 5779 5775
5911 5912 5914 5915 5914 5913 5911 5909 5907 5905 5903 5901 5899 5896 5894 5891 5889 5887 5884 5881 5879 5876 5872 5869 5866 5863 5859 5855 5851 5847 5843 5839 5835 5831 5828 5824 5820 5815 5810 5806 5801 5798 5793 5788 5784 5779 5773 5768 5764
5910 5911 5914 5918 5914 5912 5910 5907 5905 5902 5901 5899 5897 5894 5892 5890 5888 5884 5881 5878 5875 5871 5868 5865 5861 5858 5854 5850 5846 5842 5837 5833 5829 5826 5821 5817 5812 5806 5802 5797 5793 5788 5783 5779 5774 5767 5761 5756 5751
5908 5909 5912 5912 5912 5911 5908 5906 5904 5901 5900 5898 5895 5893 5891 5888 5885 5882 5878 5874 5871 5867 5863 5860 5856 5852 5849 5845 5841 5836 5832 5828 5823 5818 5814 5809 5803 5798 5793 5789 5783 5778 5773 5768 5762 5756 5749 5743 5739
5906 5907 5909 5909 5911 5909 5906 5905 5902 5899 5897 5895 5893 5890 5888 5885 5881 5878 5875 5871 5867 5863 5859 5855 5851 5847 5843 5839 5835 5830 5826 5821 5816 5811 5806 5800 5794 5790 5785 5780 5774 5768 5761 5755 5749 5742 5735 5729 5724
5902 5905 5907 5907 5907 5906 5904 5902 5900 5897 5894 5892 5889 5887 5884 5881 5877 5873 5870 5866 5862 5859 5854 5850 5846 5842 5838 5833 5828 5824 5819 5814 5809 5803 5797 5791 5786 5781 5776 5769 5762 5756 5750 5743 5736 5729 5722 5716 5710
5900 5903 5904 5904 5904 5903 5902 5900 5898 5895 5891 5889 5886 5883 5880 5877 5873 5869 5864 5861 5857 5854 5849 5845 5840 5836 5832 5827 5823 5818 5813 5807 5801 5795 5789 5784 5778 5771 5764 5758 5751 5744 5736 5729 5721 5714 5708 5702 5696
5896 5901 5900 5900 5901 5901 5899 5898 5896 5892 5890 5886 5884 5880 5877 5873 5869 5864 5859 5855 5852 5848 5844 5839 5835 5831 5826 5821 5816 5811 5806 5800 5793 5787 5780 5775 5768 5760 5753 5746 5738 5731 5723 5714 5706 5700 5695 5688 5682
5894 5896 5896 5898 5898 5898 5897 5895 5894 5890 5888 5884 5881 5877 5874 5870 5866 5860 5855 5850 5846 5843 5837 5833 5828 5823 5819 5814 5809 5803 5797 5791 5785 5778 5771 5764 5756 5749 5741 5733 5725 5716 5709 5701 5694 5687 5681 5675 5669
5889 5892 5892 5892 5893 5893 5894 5892 5890 5887 5885 5882 5878 5874 5870 5866 5862 5857 5852 5846 5842 5837 5831 5826 5821 5816 5811 5806 5801 5795 5789 5783 5775 5767 5759 5750 5743 5736 5729 5721 5712 5704 5695 5688 5681 5673 5667 5660 5654
5884 5886 5888 5888 5890 5891 5889 5888 5886 5883 5880 5878 5874 5870 5867 5862 5858 5853 5847 5842 5837 5831 5825 5820 5814 5809 5803 5798 5793 5787 5780 5773 5764 5755 5747 5740 5732 5724 5716 5707 5698 5690 5682 5674 5667 5659 5652 5645 5640
5881 5883 5884 5883 5884 5884 5883 5884 5880 5878 5876 5873 5869 5865 5861 5857 5853 5848 5842 5836 5831 5826 5819 5813 5806 5801 5795 5790 5784 5778 5770 5762 5751 5744 5736 5730 5721 5713 5704 5695 5686 5678 5669 5662 5653 5645 5638 5631 5625
5877 5878 5881 5879 5880 5878 5879 5879 5874 5873 5868 5865 5863 5860 5856 5852 5847 5841 5836 5831 5825 5819 5813 5806 5800 5794 5788 5782 5776 5768 5760 5751 5741 5733 5727 5719 5711 5702 5693 5683 5675 5666 5657 5648 5640 5631 5622 5615 5608
5872 5875 5879 5877 5872 5872 5871 5874 5870 5863 5861 5860 5857 5854 5850 5846 5840 5835 5830 5824 5819 5813 5806 5800 5794 5787 5781 5775 5768 5758 5748 5739 5733 5726 5717 5708 5700 5691 5681 5672 5663 5654 5645 5635 5626 5617 5609 5600 5591
5871 5869 5871 5873 5867 5869 5869 5870 5868 5855 5857 5854 5851 5847 5844 5839 5834 5829 5823 5818 5812 5806 5800 5794 5788 5781 5775 5768 5761 5749 5742 5733 5725 5716 5706 5698 5689 5679 5668 5659 5650 5641 5632 5622 5612 5603 5595 5587 5578
5863 5864 5865 5867 5865 5865 5866 5865 5859 5856 5852 5849 5845 5841 5837 5833 5827 5821 5816 5810 5805 5799 5794 5787 5780 5773 5766 5759 5751 5742 5732 5723 5714 5704 5697 5687 5677 5666 5656 5647 5639 5629 5620 5610 5600 5590 5581 5572 5563
5858 5860 5862 5861 5861 5862 5861 5861 5854 5849 5846 5843 5839 5835 5830 5825 5820 5814 5809 5803 5798 5792 5785 5778 5771 5764 5757 5749 5741 5732 5722 5711 5701 5693 5685 5675 5665 5655 5645 5636 5627 5617 5606 5597 5587 5578 5569 5559 5549
5853 5854 5856 5856 5854 5856 5855 5858 5841 5842 5840 5837 5832 5827 5823 5818 5813 5808 5803 5797 5791 5784 5777 5770 5763 5756 5748 5740 5731 5722 5710 5700 5692 5683 5675 5665 5654 5644 5634 5625 5615 5604 5595 5585 5576 5566 5557 5547 5534
5849 5847 5849 5850 5852 5855 5850 5857 5841 5836 5834 5831 5826 5821 5817 5812 5807 5801 5795 5788 5782 5775 5769 5762 5754 5747 5738 5730 5722 5709 5700 5691 5682 5674 5664 5653 5644 5633 5623 5613 5603 5592 5583 5574 5565 5555 5545 5534 5522
5843 5843 5844 5844 5845 5846 5845 5846 5834 5831 5828 5824 5821 5817 5812 5806 5800 5794 5787 5780 5773 5767 5759 5752 5744 5736 5729 5721 5710 5700 5692 5684 5673 5662 5653 5643 5633 5623 5611 5600 5590 5580 5571 5563 5554 5544 5533 5522 5511
5837 5838 5838 5838 5838 5840 5838 5839 5830 5828 5824 5820 5816 5811 5806 5800 5793 5786 5780 5773 5766 5759 5751 5743 5735 5727 5720 5712 5703 5693 5683 5673 5663 5652 5642 5632 5621 5611 5600 5589 5579 5570 5562 5554 5545 5534 5523 5511 5500
5832 5833 5835 5836 5836 5836 5830 5829 5825 5822 5819 5815 5810 5805 5799 5792 5786 5780 5773 5766 5759 5751 5743 5734 5726 5718 5710 5701 5692 5682 5673 5663 5653 5642 5632 5621 5609 5599 5588 5579 5570 5562 5553 5544 5535 5524 5512 5501 5490
5828 5829 5831 5830 5832 5832 5825 5822 5819 5816 5813 5809 5804 5798 5791 5786 5780 5774 5767 5760 5752 5744 5735 5726 5718 5709 5701 5692 5682 5673 5663 5653 5642 5632 5622 5610 5599 5589 5578 5570 5562 5554 5545 5535 5525 5514 5503 5492 5482
5823 5824 5825 5824 5824 5823 5820 5817 5813 5811 5807 5803 5797 5791 5786 5780 5774 5768 5761 5754 5745 5736 5727 5718 5710 5701 5692 5683 5673 5664 5654 5644 5634 5623 5612 5602 5591 5581 5571 5562 5554 5546 5537 5526 5516 5505 5494 5483 5474
5820 5821 5822 5820 5820 5820 5815 5811 5807 5804 5800 5796 5791 5785 5780 5775 5769 5763 5755 5747 5738 5729 5720 5711 5702 5693 5684 5675 5665 5656 5646 5636 5625 5614 5604 5593 5583 5574 5565 5556 5547 5538 5529 5518 5508 5497 5486 5475 5466
5818 5817 5817 5816 5816 5814 5813 5805 5803 5799 5795 5790 5785 5781 5776 5770 5764 5757 5749 5740 5731 5722 5713 5704 5696 5687 5677 5668 5658 5648 5638 5627 5617 5606 5596 5586 5576 5567 5558 5549 5541 5531 5522 5511 5499 5489 5478 5468 5458
5813 5813 5812 5812 5809 5808 5806 5800 5797 5793 5789 5785 5781 5777 5771 5765 5759 5751 5743 5734 5725 5716 5707 5698 5689 5679 5670 5660 5650 5640 5630 5619 5609 5599 5588 5578 5569 5561 5551 5543 5534 5525 5515 5503 5492 5482 5472 5461 5450